TimeAKST,TemperatureF,Dew PointF,Humidity,Sea Level PressureIn,VisibilityMPH,Wind Direction,Wind SpeedMPH,Gust SpeedMPH,PrecipitationIn,Events,Conditions,WindDirDegrees,DateUTC
12:53 AM,36.0,33.1,89,29.78,10.0,Variable,4.6,-,0.01,,Mostly Cloudy,0,2013-01-08 09:53:00
1:53 AM,36.0,33.1,89,29.80,10.0,Variable,5.8,-,N/A,,Overcast,0,2013-01-08 10:53:00
2:13 AM,35.6,33.8,93,29.80,7.0,Variable,4.6,-,0.00,Rain,Light Rain,0,2013-01-08 11:13:00
2:24 AM,35.6,33.8,93,29.80,10.0,Variable,3.5,-,0.00,Rain,Light Rain,0,2013-01-08 11:24:00
2:51 AM,35.1,32.0,89,29.81,3.0,Variable,3.5,-,0.02,Snow,Light Snow,0,2013-01-08 11:51:00
3:06 AM,35.6,33.8,93,29.79,6.0,Calm,Calm,-,0.02,Rain,Light Rain,0,2013-01-08 12:06:00
3:23 AM,33.8,32.0,93,29.79,10.0,Calm,Calm,-,0.02,,Scattered Clouds,0,2013-01-08 12:23:00
3:53 AM,33.1,32.0,96,29.78,10.0,Calm,Calm,-,0.02,,Scattered Clouds,0,2013-01-08 12:53:00
4:53 AM,34.0,32.0,92,29.78,10.0,Calm,Calm,-,0.00,,Overcast,0,2013-01-08 13:53:00
5:53 AM,33.1,32.0,96,29.77,8.0,Calm,Calm,-,0.00,Rain,Light Rain,0,2013-01-08 14:53:00
6:29 AM,33.8,32.0,93,29.76,5.0,Calm,Calm,-,0.00,Rain,Light Rain,0,2013-01-08 15:29:00
6:39 AM,33.8,32.0,93,29.75,10.0,Calm,Calm,-,0.00,,Mostly Cloudy,0,2013-01-08 15:39:00
6:46 AM,33.8,32.0,93,29.75,10.0,Calm,Calm,-,0.00,,Scattered Clouds,0,2013-01-08 15:46:00
6:53 AM,34.0,32.0,92,29.76,10.0,Calm,Calm,-,0.00,,Scattered Clouds,0,2013-01-08 15:53:00
7:30 AM,33.8,33.8,100,29.76,3.0,Variable,3.5,-,0.00,Snow,Light Snow,0,2013-01-08 16:30:00
7:32 AM,33.8,32.0,93,29.75,2.5,Calm,Calm,-,0.00,Snow,Light Snow,0,2013-01-08 16:32:00
7:41 AM,33.8,32.0,93,29.75,7.0,North,4.6,-,0.00,Rain,Light Rain,10,2013-01-08 16:41:00
7:50 AM,33.8,32.0,93,29.75,10.0,Calm,Calm,-,0.00,,Scattered Clouds,0,2013-01-08 16:50:00
7:53 AM,34.0,32.0,92,29.75,10.0,Calm,Calm,-,0.00,,Scattered Clouds,0,2013-01-08 16:53:00
8:53 AM,33.1,32.0,96,29.75,10.0,Calm,Calm,-,N/A,,Mostly Cloudy,0,2013-01-08 17:53:00
9:53 AM,34.0,32.0,92,29.74,10.0,NNE,4.6,-,N/A,,Scattered Clouds,30,2013-01-08 18:53:00
10:53 AM,34.0,32.0,92,29.73,10.0,Variable,3.5,-,N/A,,Overcast,0,2013-01-08 19:53:00
11:53 AM,37.0,33.1,86,29.70,10.0,Calm,Calm,-,0.05,,Scattered Clouds,0,2013-01-08 20:53:00
12:53 PM,37.0,34.0,89,29.68,10.0,Calm,Calm,-,0.02,,Clear,0,2013-01-08 21:53:00
1:53 PM,35.1,32.0,89,29.66,10.0,Variable,3.5,-,N/A,,Partly Cloudy,0,2013-01-08 22:53:00
2:53 PM,34.0,32.0,92,29.64,10.0,NE,5.8,-,N/A,,Clear,40,2013-01-08 23:53:00
3:53 PM,34.0,30.9,89,29.62,10.0,NE,4.6,-,N/A,,Clear,40,2013-01-09 00:53:00
4:53 PM,33.1,30.9,92,29.61,10.0,NE,3.5,-,N/A,,Clear,40,2013-01-09 01:53:00
5:53 PM,32.0,30.0,92,29.59,10.0,NE,5.8,-,0.01,,Clear,40,2013-01-09 02:53:00
6:53 PM,30.9,28.9,92,29.60,10.0,Calm,Calm,-,N/A,,Clear,0,2013-01-09 03:53:00
7:53 PM,30.9,28.9,92,29.60,10.0,Calm,Calm,-,N/A,,Clear,0,2013-01-09 04:53:00
8:53 PM,30.9,30.0,96,29.60,10.0,Calm,Calm,-,N/A,,Clear,0,2013-01-09 05:53:00
9:53 PM,32.0,30.0,92,29.60,10.0,NNW,5.8,-,N/A,,Clear,340,2013-01-09 06:53:00
10:53 PM,30.9,28.9,92,29.60,10.0,NNE,8.1,-,N/A,,Clear,30,2013-01-09 07:53:00
11:53 PM,32.0,28.9,88,29.62,10.0,NNE,5.8,-,N/A,,Partly Cloudy,20,2013-01-09 08:53:00